This is the latest recevied weather packets stored in our database for station/object WI0K. If no packets are shown the sender has not sent any weather packets the latest 10 day(s).
| Time | Temp. | Humidity | Pressure | Rain* | Wind** | Luminosity | Snow |
|---|---|---|---|---|---|---|---|
| 1788670923 | 22.78° C | 45% | 1019.8 hPa | 0 mm | - | 0 W/m² | - |
| 1788670623 | 22.78° C | 44% | 1019.8 hPa | 0 mm | - | 0 W/m² | - |
| 1788670322 | 23.33° C | 44% | 1019.8 hPa | 0 mm | - | 0 W/m² | - |
| 1788670021 | 23.33° C | 44% | 1019.9 hPa | 0 mm | - | 0 W/m² | - |
| 1788669720 | 22.78° C | 44% | 1020.2 hPa | 0 mm | - | 0 W/m² | - |
| 1788669420 | 22.78° C | 46% | 1020.1 hPa | 0 mm | - | 0 W/m² | - |
| 1788669119 | 23.33° C | 45% | 1019.9 hPa | 0 mm | - | 0 W/m² | - |
| 1788668819 | 23.33° C | 42% | 1019.8 hPa | 0 mm | - | 0 W/m² | - |
| 1788668518 | 23.33° C | 41% | 1019.8 hPa | 0 mm | - | 0 W/m² | - |
| 1788668217 | 23.89° C | 41% | 1019.9 hPa | 0 mm | - | 0 W/m² | - |
| 1788667917 | 24.44° C | 38% | 1019.8 hPa | 0 mm | - | 0 W/m² | - |
| 1788667616 | 24.44° C | 36% | 1019.4 hPa | 0 mm | - | 0 W/m² | - |
| 1788667315 | 23.89° C | 37% | 1019.1 hPa | 0 mm | - | 0 W/m² | - |
| 1788667014 | 23.89° C | 38% | 1019.1 hPa | 0 mm | - | 0 W/m² | - |
| 1788666714 | 24.44° C | 37% | 1019.1 hPa | 0 mm | - | 0 W/m² | - |
| 1788666413 | 24.44° C | 36% | 1019.1 hPa | 0 mm | - | 0 W/m² | - |
| 1788666112 | 24.44° C | 37% | 1019.2 hPa | 0 mm | - | 0 W/m² | - |
| 1788665812 | 24.44° C | 36% | 1019.2 hPa | 0 mm | - | 0 W/m² | - |
| 1788665511 | 25° C | 35% | 1019.1 hPa | 0 mm | - | 0 W/m² | - |
| 1788665210 | 25° C | 34% | 1019 hPa | 0 mm | - | 0 W/m² | - |
| 1788664910 | 25.56° C | 34% | 1019 hPa | 0 mm | - | 0 W/m² | - |
| 1788664609 | 25.56° C | 33% | 1018.9 hPa | 0 mm | - | 0 W/m² | - |
| 1788664308 | 25.56° C | 33% | 1018.8 hPa | 0 mm | - | 0 W/m² | - |
| 1788664008 | 26.11° C | 33% | 1018.8 hPa | 0 mm | - | 0 W/m² | - |
| 1788663707 | 26.11° C | 32% | 1018.6 hPa | 0 mm | - | 0 W/m² | - |
* Rain latest hour (hover to see other rain measurements)
** Current wind speed in m/s (hover to see current wind gust speed)